owner,sensor,date,latitude,longitude,vertical_datum,sea_water_temperature,qcFlag
Anadarko,ioos:station:wmo:42379:1,2020-09-01T00:01:00Z,27.3620,-90.1810,47.2,79.4,11144222
Anadarko,ioos:station:wmo:42379:1,2020-09-01T00:21:00Z,27.3620,-90.1810,47.2,79.3,11144222
Anadarko,ioos:station:wmo:42379:1,2020-09-01T00:41:00Z,27.3620,-90.1810,47.2,76.9,11144222
Anadarko,ioos:station:wmo:42379:1,2020-09-01T01:01:00Z,27.3620,-90.1810,47.2,79.5,11144222
Anadarko,ioos:station:wmo:42379:1,2020-09-01T01:21:00Z,27.3620,-90.1810,47.2,79.6,11144222
Anadarko,ioos:station:wmo:42379:1,2020-09-01T01:41:00Z,27.3620,-90.1810,47.2,77.0,11144222
Anadarko,ioos:station:wmo:42379:1,2020-09-01T02:01:00Z,27.3620,-90.1810,47.2,76.8,11144222
Anadarko,ioos:station:wmo:42379:1,2020-09-01T02:21:00Z,27.3620,-90.1810,47.2,76.9,11144222
Anadarko,ioos:station:wmo:42379:1,2020-09-01T02:40:00Z,27.3620,-90.1810,47.2,76.8,11144222
Anadarko,ioos:station:wmo:42379:1,2020-09-01T03:00:00Z,27.3620,-90.1810,47.2,76.9,11144222
Anadarko,ioos:station:wmo:42379:1,2020-09-01T03:20:00Z,27.3620,-90.1810,47.2,76.8,11144222
Anadarko,ioos:station:wmo:42379:1,2020-09-01T03:40:00Z,27.3620,-90.1810,47.2,77.0,11144222
Anadarko,ioos:station:wmo:42379:1,2020-09-01T04:00:00Z,27.3620,-90.1810,47.2,76.9,11144222
Anadarko,ioos:station:wmo:42379:1,2020-09-01T04:20:00Z,27.3620,-90.1810,47.2,77.4,11144222
Anadarko,ioos:station:wmo:42379:1,2020-09-01T04:40:00Z,27.3620,-90.1810,47.2,77.5,11144222
Anadarko,ioos:station:wmo:42379:1,2020-09-01T05:00:00Z,27.3620,-90.1810,47.2,77.2,11144222
Anadarko,ioos:station:wmo:42379:1,2020-09-01T05:20:00Z,27.3620,-90.1810,47.2,77.5,11144222
Anadarko,ioos:station:wmo:42379:1,2020-09-01T05:40:00Z,27.3620,-90.1810,47.2,77.2,11144222
Anadarko,ioos:station:wmo:42379:1,2020-09-01T06:00:00Z,27.3620,-90.1810,47.2,77.4,11144222
Anadarko,ioos:station:wmo:42379:1,2020-09-01T06:20:00Z,27.3620,-90.1810,47.2,77.4,11144222
Anadarko,ioos:station:wmo:42379:1,2020-09-01T06:40:00Z,27.3620,-90.1810,47.2,77.1,11144222
Anadarko,ioos:station:wmo:42379:1,2020-09-01T06:59:00Z,27.3620,-90.1810,47.2,74.4,11144222
Anadarko,ioos:station:wmo:42379:1,2020-09-01T07:19:00Z,27.3620,-90.1810,47.2,77.2,11144222
Anadarko,ioos:station:wmo:42379:1,2020-09-01T07:39:00Z,27.3620,-90.1810,47.2,77.8,11144222
Anadarko,ioos:station:wmo:42379:1,2020-09-01T07:58:00Z,27.3620,-90.1810,47.2,77.4,11144222
Anadarko,ioos:station:wmo:42379:1,2020-09-01T08:18:00Z,27.3620,-90.1810,47.2,77.1,11144222
Anadarko,ioos:station:wmo:42379:1,2020-09-01T08:38:00Z,27.3620,-90.1810,47.2,76.6,11144222
Anadarko,ioos:station:wmo:42379:1,2020-09-01T08:58:00Z,27.3620,-90.1810,47.2,77.3,11144222
Anadarko,ioos:station:wmo:42379:1,2020-09-01T09:18:00Z,27.3620,-90.1810,47.2,77.1,11144222
Anadarko,ioos:station:wmo:42379:1,2020-09-01T09:38:00Z,27.3620,-90.1810,47.2,77.6,11144222
Anadarko,ioos:station:wmo:42379:1,2020-09-01T09:58:00Z,27.3620,-90.1810,47.2,77.6,11144222
Anadarko,ioos:station:wmo:42379:1,2020-09-01T10:17:00Z,27.3620,-90.1810,47.2,77.4,11144222
Anadarko,ioos:station:wmo:42379:1,2020-09-01T10:36:00Z,27.3620,-90.1810,47.2,76.9,11144222
Anadarko,ioos:station:wmo:42379:1,2020-09-01T10:56:00Z,27.3620,-90.1810,47.2,77.1,11144222
Anadarko,ioos:station:wmo:42379:1,2020-09-01T11:16:00Z,27.3620,-90.1810,47.2,77.5,11144222
Anadarko,ioos:station:wmo:42379:1,2020-09-01T11:36:00Z,27.3620,-90.1810,47.2,77.8,11144222
Anadarko,ioos:station:wmo:42379:1,2020-09-01T11:56:00Z,27.3620,-90.1810,47.2,77.0,11144222
Anadarko,ioos:station:wmo:42379:1,2020-09-01T12:16:00Z,27.3620,-90.1810,47.2,77.3,11144222
Anadarko,ioos:station:wmo:42379:1,2020-09-01T12:36:00Z,27.3620,-90.1810,47.2,77.2,11144222
Anadarko,ioos:station:wmo:42379:1,2020-09-01T12:56:00Z,27.3620,-90.1810,47.2,77.6,11144222
Anadarko,ioos:station:wmo:42379:1,2020-09-01T13:15:00Z,27.3620,-90.1810,47.2,77.4,11144222
Anadarko,ioos:station:wmo:42379:1,2020-09-01T13:35:00Z,27.3620,-90.1810,47.2,77.0,11144222
Anadarko,ioos:station:wmo:42379:1,2020-09-01T13:55:00Z,27.3620,-90.1810,47.2,77.5,11144222
Anadarko,ioos:station:wmo:42379:1,2020-09-01T14:15:00Z,27.3620,-90.1810,47.2,77.7,11144222
Anadarko,ioos:station:wmo:42379:1,2020-09-01T14:35:00Z,27.3620,-90.1810,47.2,77.6,11144222
Anadarko,ioos:station:wmo:42379:1,2020-09-01T14:55:00Z,27.3620,-90.1810,47.2,76.8,11144222
Anadarko,ioos:station:wmo:42379:1,2020-09-01T15:14:00Z,27.3620,-90.1810,47.2,76.8,11144222
Anadarko,ioos:station:wmo:42379:1,2020-09-01T15:33:00Z,27.3620,-90.1810,47.2,79.4,11144222
Anadarko,ioos:station:wmo:42379:1,2020-09-01T15:53:00Z,27.3620,-90.1810,47.2,77.3,11144222
Anadarko,ioos:station:wmo:42379:1,2020-09-01T16:13:00Z,27.3620,-90.1810,47.2,77.1,11144222
Anadarko,ioos:station:wmo:42379:1,2020-09-01T16:33:00Z,27.3620,-90.1810,47.2,77.7,11144222
Anadarko,ioos:station:wmo:42379:1,2020-09-01T16:53:00Z,27.3620,-90.1810,47.2,77.0,11144222
Anadarko,ioos:station:wmo:42379:1,2020-09-01T17:13:00Z,27.3620,-90.1810,47.2,77.0,11144222
Anadarko,ioos:station:wmo:42379:1,2020-09-01T17:33:00Z,27.3620,-90.1810,47.2,77.5,11144222
Anadarko,ioos:station:wmo:42379:1,2020-09-01T17:53:00Z,27.3620,-90.1810,47.2,77.4,11144222
Anadarko,ioos:station:wmo:42379:1,2020-09-01T18:13:00Z,27.3620,-90.1810,47.2,77.4,11144222
Anadarko,ioos:station:wmo:42379:1,2020-09-01T18:33:00Z,27.3620,-90.1810,47.2,79.5,11144222
Anadarko,ioos:station:wmo:42379:1,2020-09-01T18:53:00Z,27.3620,-90.1810,47.2,79.5,11144222
Anadarko,ioos:station:wmo:42379:1,2020-09-01T19:13:00Z,27.3620,-90.1810,47.2,79.2,11144222
Anadarko,ioos:station:wmo:42379:1,2020-09-01T19:33:00Z,27.3620,-90.1810,47.2,79.1,11144222
Anadarko,ioos:station:wmo:42379:1,2020-09-01T19:53:00Z,27.3620,-90.1810,47.2,79.2,11144222
Anadarko,ioos:station:wmo:42379:1,2020-09-01T20:13:00Z,27.3620,-90.1810,47.2,79.2,11144222
Anadarko,ioos:station:wmo:42379:1,2020-09-01T20:33:00Z,27.3620,-90.1810,47.2,79.4,11144222
Anadarko,ioos:station:wmo:42379:1,2020-09-01T20:53:00Z,27.3620,-90.1810,47.2,79.4,11144222
Anadarko,ioos:station:wmo:42379:1,2020-09-01T21:13:00Z,27.3620,-90.1810,47.2,79.3,11144222
Anadarko,ioos:station:wmo:42379:1,2020-09-01T21:33:00Z,27.3620,-90.1810,47.2,79.2,11144222
Anadarko,ioos:station:wmo:42379:1,2020-09-01T21:53:00Z,27.3620,-90.1810,47.2,79.2,11144222
Anadarko,ioos:station:wmo:42379:1,2020-09-01T22:13:00Z,27.3620,-90.1810,47.2,78.8,11144222
Anadarko,ioos:station:wmo:42379:1,2020-09-01T22:33:00Z,27.3620,-90.1810,47.2,79.2,11144222
Anadarko,ioos:station:wmo:42379:1,2020-09-01T22:53:00Z,27.3620,-90.1810,47.2,79.2,11144222
Anadarko,ioos:station:wmo:42379:1,2020-09-01T23:13:00Z,27.3620,-90.1810,47.2,79.3,11144222
Anadarko,ioos:station:wmo:42379:1,2020-09-01T23:33:00Z,27.3620,-90.1810,47.2,79.3,11144222
Anadarko,ioos:station:wmo:42379:1,2020-09-01T23:53:00Z,27.3620,-90.1810,47.2,79.1,11144222
Anadarko,ioos:station:wmo:42379:1,2020-09-02T00:13:00Z,27.3620,-90.1810,47.2,79.1,11144222
Anadarko,ioos:station:wmo:42379:1,2020-09-02T00:32:00Z,27.3620,-90.1810,47.2,79.1,11144222
Anadarko,ioos:station:wmo:42379:1,2020-09-02T00:52:00Z,27.3620,-90.1810,47.2,79.0,11144222
Anadarko,ioos:station:wmo:42379:1,2020-09-02T01:12:00Z,27.3620,-90.1810,47.2,79.0,11144222
Anadarko,ioos:station:wmo:42379:1,2020-09-02T01:32:00Z,27.3620,-90.1810,47.2,79.2,11144222
Anadarko,ioos:station:wmo:42379:1,2020-09-02T01:52:00Z,27.3620,-90.1810,47.2,79.1,11144222
Anadarko,ioos:station:wmo:42379:1,2020-09-02T02:12:00Z,27.3620,-90.1810,47.2,79.1,11144222
Anadarko,ioos:station:wmo:42379:1,2020-09-02T02:32:00Z,27.3620,-90.1810,47.2,79.0,11144222
Anadarko,ioos:station:wmo:42379:1,2020-09-02T02:52:00Z,27.3620,-90.1810,47.2,79.1,11144222
Anadarko,ioos:station:wmo:42379:1,2020-09-02T03:12:00Z,27.3620,-90.1810,47.2,79.2,11144222
Anadarko,ioos:station:wmo:42379:1,2020-09-02T03:32:00Z,27.3620,-90.1810,47.2,79.1,11144222
Anadarko,ioos:station:wmo:42379:1,2020-09-02T03:52:00Z,27.3620,-90.1810,47.2,79.1,11144222
Anadarko,ioos:station:wmo:42379:1,2020-09-02T04:12:00Z,27.3620,-90.1810,47.2,79.1,11144222
Anadarko,ioos:station:wmo:42379:1,2020-09-02T04:32:00Z,27.3620,-90.1810,47.2,79.1,11144222
Anadarko,ioos:station:wmo:42379:1,2020-09-02T04:52:00Z,27.3620,-90.1810,47.2,79.1,11144222
Anadarko,ioos:station:wmo:42379:1,2020-09-02T05:12:00Z,27.3620,-90.1810,47.2,79.0,11144222
Anadarko,ioos:station:wmo:42379:1,2020-09-02T05:32:00Z,27.3620,-90.1810,47.2,79.1,11144222
Anadarko,ioos:station:wmo:42379:1,2020-09-02T05:52:00Z,27.3620,-90.1810,47.2,79.2,11144222
Anadarko,ioos:station:wmo:42379:1,2020-09-02T06:12:00Z,27.3620,-90.1810,47.2,79.1,11144222
Anadarko,ioos:station:wmo:42379:1,2020-09-02T06:32:00Z,27.3620,-90.1810,47.2,79.0,11144222
Anadarko,ioos:station:wmo:42379:1,2020-09-02T06:52:00Z,27.3620,-90.1810,47.2,79.0,11144222
Anadarko,ioos:station:wmo:42379:1,2020-09-02T07:12:00Z,27.3620,-90.1810,47.2,78.8,11144222
Anadarko,ioos:station:wmo:42379:1,2020-09-02T07:32:00Z,27.3620,-90.1810,47.2,76.8,11144222
Anadarko,ioos:station:wmo:42379:1,2020-09-02T07:52:00Z,27.3620,-90.1810,47.2,79.2,11144222
Anadarko,ioos:station:wmo:42379:1,2020-09-02T08:12:00Z,27.3620,-90.1810,47.2,75.7,11144222
Anadarko,ioos:station:wmo:42379:1,2020-09-02T08:32:00Z,27.3620,-90.1810,47.2,76.0,11144222
Anadarko,ioos:station:wmo:42379:1,2020-09-02T08:52:00Z,27.3620,-90.1810,47.2,76.5,11144222
Anadarko,ioos:station:wmo:42379:1,2020-09-02T09:12:00Z,27.3620,-90.1810,47.2,77.2,11144222
Anadarko,ioos:station:wmo:42379:1,2020-09-02T09:32:00Z,27.3620,-90.1810,47.2,77.6,11144222
Anadarko,ioos:station:wmo:42379:1,2020-09-02T09:52:00Z,27.3620,-90.1810,47.2,77.1,11144222
Anadarko,ioos:station:wmo:42379:1,2020-09-02T10:12:00Z,27.3620,-90.1810,47.2,77.2,11144222
Anadarko,ioos:station:wmo:42379:1,2020-09-02T10:32:00Z,27.3620,-90.1810,47.2,78.7,11144222
Anadarko,ioos:station:wmo:42379:1,2020-09-02T10:52:00Z,27.3620,-90.1810,47.2,79.0,11144222
Anadarko,ioos:station:wmo:42379:1,2020-09-02T11:12:00Z,27.3620,-90.1810,47.2,79.2,11144222
Anadarko,ioos:station:wmo:42379:1,2020-09-02T11:31:00Z,27.3620,-90.1810,47.2,78.8,11144222
Anadarko,ioos:station:wmo:42379:1,2020-09-02T11:50:00Z,27.3620,-90.1810,47.2,79.2,11144222
Anadarko,ioos:station:wmo:42379:1,2020-09-02T12:10:00Z,27.3620,-90.1810,47.2,78.9,11144222
Anadarko,ioos:station:wmo:42379:1,2020-09-02T12:36:00Z,27.3620,-90.1810,47.2,79.2,11144222
Anadarko,ioos:station:wmo:42379:1,2020-09-02T12:56:00Z,27.3620,-90.1810,47.2,79.2,11144222
Anadarko,ioos:station:wmo:42379:1,2020-09-02T13:14:00Z,27.3620,-90.1810,47.2,79.1,11144222
Anadarko,ioos:station:wmo:42379:1,2020-09-02T13:34:00Z,27.3620,-90.1810,47.2,79.0,11144222
Anadarko,ioos:station:wmo:42379:1,2020-09-02T13:53:00Z,27.3620,-90.1810,47.2,79.5,11144222
Anadarko,ioos:station:wmo:42379:1,2020-09-02T14:13:00Z,27.3620,-90.1810,47.2,79.1,11144222
Anadarko,ioos:station:wmo:42379:1,2020-09-02T14:33:00Z,27.3620,-90.1810,47.2,79.1,11144222
Anadarko,ioos:station:wmo:42379:1,2020-09-02T14:52:00Z,27.3620,-90.1810,47.2,79.1,11144222
Anadarko,ioos:station:wmo:42379:1,2020-09-02T15:12:00Z,27.3620,-90.1810,47.2,79.6,11144222
Anadarko,ioos:station:wmo:42379:1,2020-09-02T15:31:00Z,27.3620,-90.1810,47.2,79.6,11144222
Anadarko,ioos:station:wmo:42379:1,2020-09-02T15:51:00Z,27.3620,-90.1810,47.2,79.7,11144222
Anadarko,ioos:station:wmo:42379:1,2020-09-02T16:11:00Z,27.3620,-90.1810,47.2,79.7,11144222
Anadarko,ioos:station:wmo:42379:1,2020-09-02T16:31:00Z,27.3620,-90.1810,47.2,79.6,11144222
Anadarko,ioos:station:wmo:42379:1,2020-09-02T16:51:00Z,27.3620,-90.1810,47.2,79.4,11144222
Anadarko,ioos:station:wmo:42379:1,2020-09-02T17:11:00Z,27.3620,-90.1810,47.2,79.1,11144222
Anadarko,ioos:station:wmo:42379:1,2020-09-02T17:31:00Z,27.3620,-90.1810,47.2,79.4,11144222
Anadarko,ioos:station:wmo:42379:1,2020-09-02T17:51:00Z,27.3620,-90.1810,47.2,79.4,11144222
Anadarko,ioos:station:wmo:42379:1,2020-09-02T18:11:00Z,27.3620,-90.1810,47.2,79.3,11144222
Anadarko,ioos:station:wmo:42379:1,2020-09-02T18:30:00Z,27.3620,-90.1810,47.2,78.7,11144222
Anadarko,ioos:station:wmo:42379:1,2020-09-02T18:49:00Z,27.3620,-90.1810,47.2,79.2,11144222
Anadarko,ioos:station:wmo:42379:1,2020-09-02T19:09:00Z,27.3620,-90.1810,47.2,79.3,11144222
Anadarko,ioos:station:wmo:42379:1,2020-09-02T19:29:00Z,27.3620,-90.1810,47.2,77.6,11144222
Anadarko,ioos:station:wmo:42379:1,2020-09-02T19:49:00Z,27.3620,-90.1810,47.2,77.8,11144222
Anadarko,ioos:station:wmo:42379:1,2020-09-02T20:09:00Z,27.3620,-90.1810,47.2,77.2,11144222
Anadarko,ioos:station:wmo:42379:1,2020-09-02T20:29:00Z,27.3620,-90.1810,47.2,79.5,11144222
Anadarko,ioos:station:wmo:42379:1,2020-09-02T20:49:00Z,27.3620,-90.1810,47.2,79.1,11144222
Anadarko,ioos:station:wmo:42379:1,2020-09-02T21:09:00Z,27.3620,-90.1810,47.2,79.3,11144222
Anadarko,ioos:station:wmo:42379:1,2020-09-02T21:29:00Z,27.3620,-90.1810,47.2,79.4,11144222
Anadarko,ioos:station:wmo:42379:1,2020-09-02T21:48:00Z,27.3620,-90.1810,47.2,79.3,11144222
Anadarko,ioos:station:wmo:42379:1,2020-09-02T22:08:00Z,27.3620,-90.1810,47.2,79.4,11144222
Anadarko,ioos:station:wmo:42379:1,2020-09-02T22:28:00Z,27.3620,-90.1810,47.2,79.2,11144222
Anadarko,ioos:station:wmo:42379:1,2020-09-02T22:48:00Z,27.3620,-90.1810,47.2,79.2,11144222
Anadarko,ioos:station:wmo:42379:1,2020-09-02T23:08:00Z,27.3620,-90.1810,47.2,79.3,11144222
Anadarko,ioos:station:wmo:42379:1,2020-09-02T23:27:00Z,27.3620,-90.1810,47.2,79.4,11144222
Anadarko,ioos:station:wmo:42379:1,2020-09-02T23:47:00Z,27.3620,-90.1810,47.2,79.2,11144222
Anadarko,ioos:station:wmo:42379:1,2020-09-03T00:07:00Z,27.3620,-90.1810,47.2,79.2,11144222
Anadarko,ioos:station:wmo:42379:1,2020-09-03T00:27:00Z,27.3620,-90.1810,47.2,79.3,11144222
Anadarko,ioos:station:wmo:42379:1,2020-09-03T00:47:00Z,27.3620,-90.1810,47.2,79.2,11144222
Anadarko,ioos:station:wmo:42379:1,2020-09-03T01:07:00Z,27.3620,-90.1810,47.2,79.3,11144222
Anadarko,ioos:station:wmo:42379:1,2020-09-03T01:27:00Z,27.3620,-90.1810,47.2,79.2,11144222
Anadarko,ioos:station:wmo:42379:1,2020-09-03T01:47:00Z,27.3620,-90.1810,47.2,79.4,11144222
Anadarko,ioos:station:wmo:42379:1,2020-09-03T02:07:00Z,27.3620,-90.1810,47.2,79.2,11144222
Anadarko,ioos:station:wmo:42379:1,2020-09-03T02:27:00Z,27.3620,-90.1810,47.2,79.2,11144222
Anadarko,ioos:station:wmo:42379:1,2020-09-03T02:46:00Z,27.3620,-90.1810,47.2,79.2,11144222
Anadarko,ioos:station:wmo:42379:1,2020-09-03T03:05:00Z,27.3620,-90.1810,47.2,79.1,11144222
Anadarko,ioos:station:wmo:42379:1,2020-09-03T03:25:00Z,27.3620,-90.1810,47.2,79.3,11144222
Anadarko,ioos:station:wmo:42379:1,2020-09-03T03:45:00Z,27.3620,-90.1810,47.2,79.0,11144222
Anadarko,ioos:station:wmo:42379:1,2020-09-03T04:05:00Z,27.3620,-90.1810,47.2,79.3,11144222
Anadarko,ioos:station:wmo:42379:1,2020-09-03T04:25:00Z,27.3620,-90.1810,47.2,79.3,11144222
Anadarko,ioos:station:wmo:42379:1,2020-09-03T04:45:00Z,27.3620,-90.1810,47.2,79.1,11144222
Anadarko,ioos:station:wmo:42379:1,2020-09-03T05:04:00Z,27.3620,-90.1810,47.2,79.2,11144222
Anadarko,ioos:station:wmo:42379:1,2020-09-03T05:24:00Z,27.3620,-90.1810,47.2,79.1,11144222
Anadarko,ioos:station:wmo:42379:1,2020-09-03T05:44:00Z,27.3620,-90.1810,47.2,79.3,11144222
Anadarko,ioos:station:wmo:42379:1,2020-09-03T06:04:00Z,27.3620,-90.1810,47.2,79.2,11144222
Anadarko,ioos:station:wmo:42379:1,2020-09-03T06:24:00Z,27.3620,-90.1810,47.2,79.3,11144222
Anadarko,ioos:station:wmo:42379:1,2020-09-03T06:44:00Z,27.3620,-90.1810,47.2,79.2,11144222
Anadarko,ioos:station:wmo:42379:1,2020-09-03T07:03:00Z,27.3620,-90.1810,47.2,79.3,11144222
Anadarko,ioos:station:wmo:42379:1,2020-09-03T07:23:00Z,27.3620,-90.1810,47.2,79.2,11144222
Anadarko,ioos:station:wmo:42379:1,2020-09-03T07:43:00Z,27.3620,-90.1810,47.2,79.2,11144222
Anadarko,ioos:station:wmo:42379:1,2020-09-03T08:02:00Z,27.3620,-90.1810,47.2,79.1,11144222
Anadarko,ioos:station:wmo:42379:1,2020-09-03T08:22:00Z,27.3620,-90.1810,47.2,79.2,11144222
Anadarko,ioos:station:wmo:42379:1,2020-09-03T08:42:00Z,27.3620,-90.1810,47.2,79.2,11144222
Anadarko,ioos:station:wmo:42379:1,2020-09-03T09:02:00Z,27.3620,-90.1810,47.2,79.1,11144222
Anadarko,ioos:station:wmo:42379:1,2020-09-03T09:22:00Z,27.3620,-90.1810,47.2,79.1,11144222
Anadarko,ioos:station:wmo:42379:1,2020-09-03T09:42:00Z,27.3620,-90.1810,47.2,79.2,11144222
Anadarko,ioos:station:wmo:42379:1,2020-09-03T10:02:00Z,27.3620,-90.1810,47.2,79.1,11144222
Anadarko,ioos:station:wmo:42379:1,2020-09-03T10:22:00Z,27.3620,-90.1810,47.2,79.1,11144222
Anadarko,ioos:station:wmo:42379:1,2020-09-03T10:42:00Z,27.3620,-90.1810,47.2,78.9,11144222
Anadarko,ioos:station:wmo:42379:1,2020-09-03T11:02:00Z,27.3620,-90.1810,47.2,78.8,11144222
Anadarko,ioos:station:wmo:42379:1,2020-09-03T11:22:00Z,27.3620,-90.1810,47.2,79.2,11144222
Anadarko,ioos:station:wmo:42379:1,2020-09-03T11:42:00Z,27.3620,-90.1810,47.2,79.1,11144222
Anadarko,ioos:station:wmo:42379:1,2020-09-03T12:02:00Z,27.3620,-90.1810,47.2,79.0,11144222
Anadarko,ioos:station:wmo:42379:1,2020-09-03T12:21:00Z,27.3620,-90.1810,47.2,79.2,11144222
Anadarko,ioos:station:wmo:42379:1,2020-09-03T12:41:00Z,27.3620,-90.1810,47.2,78.9,11144222
Anadarko,ioos:station:wmo:42379:1,2020-09-03T13:01:00Z,27.3620,-90.1810,47.2,79.1,11144222
Anadarko,ioos:station:wmo:42379:1,2020-09-03T13:21:00Z,27.3620,-90.1810,47.2,79.1,11144222
Anadarko,ioos:station:wmo:42379:1,2020-09-03T13:41:00Z,27.3620,-90.1810,47.2,79.0,11144222
Anadarko,ioos:station:wmo:42379:1,2020-09-03T14:01:00Z,27.3620,-90.1810,47.2,79.2,11144222
Anadarko,ioos:station:wmo:42379:1,2020-09-03T14:21:00Z,27.3620,-90.1810,47.2,76.9,11144222
Anadarko,ioos:station:wmo:42379:1,2020-09-03T14:41:00Z,27.3620,-90.1810,47.2,73.9,11144222
Anadarko,ioos:station:wmo:42379:1,2020-09-03T15:01:00Z,27.3620,-90.1810,47.2,77.1,11144222
Anadarko,ioos:station:wmo:42379:1,2020-09-03T15:21:00Z,27.3620,-90.1810,47.2,77.3,11144222
Anadarko,ioos:station:wmo:42379:1,2020-09-03T15:40:00Z,27.3620,-90.1810,47.2,77.1,11144222
Anadarko,ioos:station:wmo:42379:1,2020-09-03T16:00:00Z,27.3620,-90.1810,47.2,77.0,11144222
Anadarko,ioos:station:wmo:42379:1,2020-09-03T16:20:00Z,27.3620,-90.1810,47.2,76.7,11144222
Anadarko,ioos:station:wmo:42379:1,2020-09-03T16:39:00Z,27.3620,-90.1810,47.2,76.9,11144222
Anadarko,ioos:station:wmo:42379:1,2020-09-03T16:58:00Z,27.3620,-90.1810,47.2,77.3,11144222
Anadarko,ioos:station:wmo:42379:1,2020-09-03T17:17:00Z,27.3620,-90.1810,47.2,77.2,11144222
Anadarko,ioos:station:wmo:42379:1,2020-09-03T17:37:00Z,27.3620,-90.1810,47.2,76.9,11144222
Anadarko,ioos:station:wmo:42379:1,2020-09-03T17:57:00Z,27.3620,-90.1810,47.2,77.3,11144222
Anadarko,ioos:station:wmo:42379:1,2020-09-03T18:17:00Z,27.3620,-90.1810,47.2,77.2,11144222
Anadarko,ioos:station:wmo:42379:1,2020-09-03T18:37:00Z,27.3620,-90.1810,47.2,79.7,11144222
Anadarko,ioos:station:wmo:42379:1,2020-09-03T18:56:00Z,27.3620,-90.1810,47.2,79.4,11144222
Anadarko,ioos:station:wmo:42379:1,2020-09-03T19:16:00Z,27.3620,-90.1810,47.2,80.8,11144222
Anadarko,ioos:station:wmo:42379:1,2020-09-03T19:36:00Z,27.3620,-90.1810,47.2,81.1,11144222
Anadarko,ioos:station:wmo:42379:1,2020-09-03T19:56:00Z,27.3620,-90.1810,47.2,80.9,11144222
Anadarko,ioos:station:wmo:42379:1,2020-09-03T20:15:00Z,27.3620,-90.1810,47.2,79.2,11144222
Anadarko,ioos:station:wmo:42379:1,2020-09-03T20:35:00Z,27.3620,-90.1810,47.2,79.2,11144222
Anadarko,ioos:station:wmo:42379:1,2020-09-03T20:55:00Z,27.3620,-90.1810,47.2,79.3,11144222
Anadarko,ioos:station:wmo:42379:1,2020-09-03T21:14:00Z,27.3620,-90.1810,47.2,79.2,11144222
Anadarko,ioos:station:wmo:42379:1,2020-09-03T21:34:00Z,27.3620,-90.1810,47.2,79.3,11144222
Anadarko,ioos:station:wmo:42379:1,2020-09-03T21:53:00Z,27.3620,-90.1810,47.2,80.3,11144222
Anadarko,ioos:station:wmo:42379:1,2020-09-03T22:12:00Z,27.3620,-90.1810,47.2,80.4,11144222
Anadarko,ioos:station:wmo:42379:1,2020-09-03T22:32:00Z,27.3620,-90.1810,47.2,80.6,11144222
Anadarko,ioos:station:wmo:42379:1,2020-09-03T22:52:00Z,27.3620,-90.1810,47.2,80.5,11144222
Anadarko,ioos:station:wmo:42379:1,2020-09-03T23:12:00Z,27.3620,-90.1810,47.2,80.5,11144222
Anadarko,ioos:station:wmo:42379:1,2020-09-03T23:40:00Z,27.3620,-90.1810,47.2,80.4,11144222
Anadarko,ioos:station:wmo:42379:1,2020-09-04T00:00:00Z,27.3620,-90.1810,47.2,80.8,11144222
Anadarko,ioos:station:wmo:42379:1,2020-09-04T00:20:00Z,27.3620,-90.1810,47.2,80.8,11144222
Anadarko,ioos:station:wmo:42379:1,2020-09-04T00:40:00Z,27.3620,-90.1810,47.2,80.7,11144222
Anadarko,ioos:station:wmo:42379:1,2020-09-04T01:00:00Z,27.3620,-90.1810,47.2,79.1,11144222
Anadarko,ioos:station:wmo:42379:1,2020-09-04T01:20:00Z,27.3620,-90.1810,47.2,77.8,11144222
Anadarko,ioos:station:wmo:42379:1,2020-09-04T01:39:00Z,27.3620,-90.1810,47.2,80.8,11144222
Anadarko,ioos:station:wmo:42379:1,2020-09-04T01:59:00Z,27.3620,-90.1810,47.2,80.9,11144222
Anadarko,ioos:station:wmo:42379:1,2020-09-04T02:18:00Z,27.3620,-90.1810,47.2,80.9,11144222
Anadarko,ioos:station:wmo:42379:1,2020-09-04T02:38:00Z,27.3620,-90.1810,47.2,80.9,11144222
Anadarko,ioos:station:wmo:42379:1,2020-09-04T02:57:00Z,27.3620,-90.1810,47.2,80.6,11144222
Anadarko,ioos:station:wmo:42379:1,2020-09-04T03:17:00Z,27.3620,-90.1810,47.2,80.6,11144222
Anadarko,ioos:station:wmo:42379:1,2020-09-04T03:36:00Z,27.3620,-90.1810,47.2,80.8,11144222
Anadarko,ioos:station:wmo:42379:1,2020-09-04T03:56:00Z,27.3620,-90.1810,47.2,80.9,11144222
Anadarko,ioos:station:wmo:42379:1,2020-09-04T04:15:00Z,27.3620,-90.1810,47.2,80.8,11144222
Anadarko,ioos:station:wmo:42379:1,2020-09-04T04:35:00Z,27.3620,-90.1810,47.2,79.3,11144222
Anadarko,ioos:station:wmo:42379:1,2020-09-04T04:54:00Z,27.3620,-90.1810,47.2,79.2,11144222
Anadarko,ioos:station:wmo:42379:1,2020-09-04T05:14:00Z,27.3620,-90.1810,47.2,79.2,11144222
Anadarko,ioos:station:wmo:42379:1,2020-09-04T05:33:00Z,27.3620,-90.1810,47.2,79.3,11144222
Anadarko,ioos:station:wmo:42379:1,2020-09-04T05:53:00Z,27.3620,-90.1810,47.2,78.9,11144222
Anadarko,ioos:station:wmo:42379:1,2020-09-04T06:13:00Z,27.3620,-90.1810,47.2,79.1,11144222
Anadarko,ioos:station:wmo:42379:1,2020-09-04T06:33:00Z,27.3620,-90.1810,47.2,79.0,11144222
Anadarko,ioos:station:wmo:42379:1,2020-09-04T06:52:00Z,27.3620,-90.1810,47.2,79.0,11144222
Anadarko,ioos:station:wmo:42379:1,2020-09-04T07:12:00Z,27.3620,-90.1810,47.2,79.1,11144222
Anadarko,ioos:station:wmo:42379:1,2020-09-04T07:32:00Z,27.3620,-90.1810,47.2,76.3,11144222
Anadarko,ioos:station:wmo:42379:1,2020-09-04T07:52:00Z,27.3620,-90.1810,47.2,78.8,11144222
Anadarko,ioos:station:wmo:42379:1,2020-09-04T08:11:00Z,27.3620,-90.1810,47.2,78.9,11144222
Anadarko,ioos:station:wmo:42379:1,2020-09-04T08:31:00Z,27.3620,-90.1810,47.2,78.9,11144222
Anadarko,ioos:station:wmo:42379:1,2020-09-04T08:51:00Z,27.3620,-90.1810,47.2,74.3,11144222
Anadarko,ioos:station:wmo:42379:1,2020-09-04T09:11:00Z,27.3620,-90.1810,47.2,77.5,11144222
Anadarko,ioos:station:wmo:42379:1,2020-09-04T09:31:00Z,27.3620,-90.1810,47.2,77.5,11144222
Anadarko,ioos:station:wmo:42379:1,2020-09-04T09:50:00Z,27.3620,-90.1810,47.2,77.4,11144222
Anadarko,ioos:station:wmo:42379:1,2020-09-04T10:10:00Z,27.3620,-90.1810,47.2,77.3,11144222
Anadarko,ioos:station:wmo:42379:1,2020-09-04T10:29:00Z,27.3620,-90.1810,47.2,77.3,11144222
Anadarko,ioos:station:wmo:42379:1,2020-09-04T10:49:00Z,27.3620,-90.1810,47.2,77.4,11144222
Anadarko,ioos:station:wmo:42379:1,2020-09-04T11:09:00Z,27.3620,-90.1810,47.2,77.4,11144222
Anadarko,ioos:station:wmo:42379:1,2020-09-04T11:29:00Z,27.3620,-90.1810,47.2,77.4,11144222
Anadarko,ioos:station:wmo:42379:1,2020-09-04T11:49:00Z,27.3620,-90.1810,47.2,77.5,11144222
Anadarko,ioos:station:wmo:42379:1,2020-09-04T12:09:00Z,27.3620,-90.1810,47.2,77.4,11144222
Anadarko,ioos:station:wmo:42379:1,2020-09-04T12:29:00Z,27.3620,-90.1810,47.2,77.4,11144222
Anadarko,ioos:station:wmo:42379:1,2020-09-04T12:49:00Z,27.3620,-90.1810,47.2,77.4,11144222
Anadarko,ioos:station:wmo:42379:1,2020-09-04T13:09:00Z,27.3620,-90.1810,47.2,77.6,11144222
Anadarko,ioos:station:wmo:42379:1,2020-09-04T13:29:00Z,27.3620,-90.1810,47.2,77.5,11144222